Flag for Canada Weather past 2 weeks in Windsor, Ontario, Canada

Now
77 °F

Sunny.


Feels Like: 78 °F
Forecast: 56 / 80 °F
Wind: 5 mph from North

Location: Windsor Weather Station

Current Time: Jul 4, 2015 at 3:44:37 PM

Latest Report: Jul 4, 2015 at 3:00 PM


Visibility: 15 mi

Pressure: 29.99 "Hg

Humidity: 42%

Dew point: 52 °F

Location of WindsorLocation

Historic Weather in Windsor — Graph

°F

Windsor temperature yesterday

Maximum temperature yesterday: 72 °F (at 3:00 PM)
Minimum temperature yesterday: 54 °F (at 6:00 AM)
Average temperature yesterday: 64 °F

Past Weeks' High & Low Weather Summary

 TemperatureHumidityPressure
High84 °F (Jun 21, 5:00 PM)100% (Jun 20, 5:00 AM)30.16 "Hg (Jun 20, 5:00 AM)
Low54 °F (Jul 3, 6:00 AM)32% (Jun 24, 2:00 PM)29.68 "Hg (Jun 27, 7:00 PM)
Average67 °F75%29.91 "Hg
* Reported Jun 19 2:00 PM — Jul 4 2:00 PM, Windsor, Weather by CustomWeather, © 2015

Note: Actual official high and low records may vary slightly from our data, if they occured in-between our weather recording intervals... More about our weather records

Advertising

Windsor weather history for previous 24 hours

 ConditionsComfort  
Time TempWeatherWind HumidityBarometerVisibility
2:00 PM
Sat, Jul 4
75 °FSunny.No wind41%29.99 "Hg15 mi
1:00 PM75 °FSunny.7 mph39%29.99 "Hg15 mi
12:00 PM75 °FSunny.6 mph44%29.99 "Hg15 mi
11:00 AM72 °FSunny.2 mph50%29.98 "Hg15 mi
10:00 AM70 °FSunny.3 mph53%29.98 "Hg15 mi
9:00 AM68 °FSunny.6 mph64%29.97 "Hg15 mi
8:00 AM63 °FSunny.5 mph77%29.96 "Hg15 mi
7:00 AM59 °FPassing clouds.7 mph82%29.94 "Hg15 mi
6:00 AM57 °FPassing clouds.No wind88%29.93 "Hg15 mi
5:00 AM57 °FPassing clouds.7 mph88%29.92 "Hg15 mi
4:00 AM59 °FClear.5 mph82%29.92 "Hg15 mi
3:00 AM59 °FClear.5 mph82%29.93 "Hg15 mi
2:00 AM57 °FClear.5 mph88%29.93 "Hg15 mi
1:00 AM61 °FClear.3 mph77%29.93 "Hg15 mi
12:00 AM61 °FClear.2 mph83%29.93 "Hg15 mi
11:00 PM
Fri, Jul 3
63 °FClear.No wind83%29.93 "Hg15 mi
10:00 PM64 °FPassing clouds.2 mph83%29.92 "Hg15 mi
9:00 PM66 °FPassing clouds.2 mph68%29.91 "Hg15 mi
8:00 PM70 °FScattered clouds.7 mph53%29.91 "Hg15 mi
7:00 PM72 °FPartly sunny.9 mph50%29.92 "Hg15 mi
6:00 PM72 °FPartly sunny.9 mph57%29.92 "Hg15 mi
5:00 PM72 °FBroken clouds.6 mph61%29.94 "Hg15 mi
4:00 PM72 °FPartly sunny.8 mph61%29.95 "Hg15 mi
3:00 PM72 °FBroken clouds.9 mph65%29.97 "Hg15 mi
Weather by CustomWeather, © 2015

See weather overviewHow to use our weather pages